Location: Krishnamma Banjar
(17.2175°N, 80.5166°E)
Time: 11:03:07
(UTC+00:00)

Delta 168 - Pass Details

Date: 03 August 2024
Orbit: 392 x 1942 km, 25.3° (Epoch: 14 September)

Event Time Altitude Azimuth Distance (km) Brightness Sun altitude
Exits shadow 22:45:30 48° 232° (SW) 961 3.5 -21.3°
Maximum altitude 22:46:17 53° 201° (SSW) 945 3.6 -21.2°
Drops below altitude 10° 22:52:51 10° 125° (SE) 2,880 6.8 -19.8°
Sets 22:56:18 0° 122° (ESE) 4,128 7.7 -19.0°
